Location: Wanzleben
(52.0609°N, 11.4408°E)
Time: 03:24:19
(UTC+00:00)

Meteor 1-21 Rocket - Pass Details

Date: 18 September 2020
Orbit: 834 x 907 km, 81.2° (Epoch: 22 October)

Event Time Altitude Azimuth Distance (km) Brightness Sun altitude
Rises 21:01:42 0° 345° (NNW) 3,451 8.3 -30.3°
Reaches altitude 10° 21:04:07 10° 344° (NNW) 2,520 7.5 -30.5°
Enters shadow 21:09:14 68° 310° (NW) 945 4.5 -30.9°
